CAPE
1016 1273 931 960 1098 1094 1148 1396 1368 1363 1349 1275 1340 1102 1008 1107 1122 1183 1474 1518 1553 1733 1747 1597 1753 1753 1930 2411 2399 2573 2951 3194 2960 3088 3428 4043 3901 3697 3523 3554 3802 3549 3470 3448 3101 2585 2830 3288 3749 3883 3841 3377 3375 3203 2786 2823 2908 2874 2883 2575 2652 3086 2970 3307 3437 3253 3073 2517 2311 2087 2138 2375 2368 2543 2582 2418 2312 2507 2656 2894 2961 2872 2394 2308 2746
1090 1191 1122 895 821 899 629 827 1249 1221 1104 1100 1237 1004 884 923 965 1021 1020 1216 1328 1291 1481 1632 1719 1611 2016 2247 2490 2586 2907 3398 3257 2462 3162 3516 3826 2930 3076 3665 4198 3578 3078 2703 2470 2958 2776 3193 3582 3858 3718 3367 3011 2609 2431 2413 2320 1993 1819 1954 2172 2564 2916 2733 3036 3157 3104 2771 2862 2427 1926 2065 1963 2373 2526 2413 2462 2781 2855 2601 2614 2320 2180 2280 2369
1158 1253 1268 1057 1169 782 590 395 519 709 706 626 693 793 747 873 1029 1104 901 741 1029 1168 1218 1383 1809 2270 2433 2562 2843 2936 2782 2817 2555 2688 2987 3035 3261 2915 2746 2124 2414 2557 2777 2689 1741 1860 2554 2844 3126 3332 3476 3263 3165 3062 2986 3200 2464 2480 2154 2104 2105 2380 2258 2528 2687 2770 2843 3065 2711 2697 1838 1870 2064 2299 2412 2374 2460 2362 2565 2464 2173 2008 1962 2039 2009
1537 1667 1768 1521 1199 718 677 413 379 461 456 404 453 500 499 622 914 937 870 580 536 1076 1139 1418 1789 2084 2207 2296 2558 2750 2794 2905 2287 1984 2598 3393 3390 3708 3382 3153 3015 2954 3132 2615 1915 2087 2613 2809 2806 3081 3393 3246 3189 3480 3253 2644 2467 2405 2114 2377 1906 1378 1620 2110 2901 2956 2872 2752 2551 2473 2390 2299 2235 2248 2184 2232 2003 2097 2199 2178 2130 1910 2021 1869 1730
2169 2199 2363 2140 1530 1247 712 466 423 512 406 360 341 330 326 340 399 756 693 419 391 434 985 1298 1475 1754 1787 1874 2063 2157 2188 2461 2352 2472 1982 2862 3052 3242 3492 3452 3023 3572 3630 2339 1926 2270 2817 2716 2745 3014 3000 2858 3097 3146 2909 2750 2361 2263 2181 2008 2255 2376 1863 2232 2576 2564 2640 2513 2363 2032 1891 1818 2139 1963 1960 1510 2045 1753 1780 1751 1709 1768 1909 1693 1352
1886 2751 3020 2823 2368 1869 1433 981 680 718 734 438 335 327 299 348 512 596 718 588 505 491 509 877 1057 1402 1587 1603 1822 2298 2561 2676 2519 2786 2513 2608 2704 3262 3326 3062 3055 2898 3249 2387 2073 2634 2701 3065 3386 2993 2882 3210 3119 3045 2948 2973 2379 1901 1837 1962 2099 1979 2162 2388 2732 2646 1552 1310 1452 1240 1725 1611 1450 1799 2057 1848 1368 1335 1604 1545 1275 1354 1395 1274 1117
2373 3069 3233 3011 2993 2645 2362 1964 1568 1169 1310 1134 591 506 361 352 424 487 618 637 571 506 515 682 824 867 1127 1457 2200 2859 3068 2844 3596 3506 3631 3393 3432 3310 3259 3341 3256 3373 3422 3497 2928 2734 2468 3037 3127 2969 3110 3400 3207 3214 3150 2526 2162 2133 2129 1708 1907 1966 2004 1668 1430 1060 1020 1166 1636 2180 2294 2255 2076 1775 1823 1453 1248 1042 370 461 502 878 1062 936 716
2853 3257 3264 3047 3078 3008 2834 2685 2536 2391 2469 2453 1732 1193 966 476 422 591 666 733 715 551 346 385 723 1016 1064 1612 3228 3341 3658 3656 4177 4073 3848 3548 3386 3077 3114 3443 3442 3242 3546 3535 3402 3322 2973 2276 2077 2205 2748 2917 2830 2887 2999 2833 2545 2123 1215 1452 1448 1564 1490 1204 1120 1042 1200 1450 1670 1023 942 868 962 1251 992 403 248 166 105 167 401 516 611 541 26
2922 3115 3138 2938 3009 3006 2864 2562 2995 3174 3208 3426 2925 2335 2060 1707 1279 1190 1100 1075 1020 655 518 378 760 1760 2010 2278 3020 3104 3407 2894 1757 1657 2349 3025 3213 3114 3830 3634 3436 3821 3509 2778 2353 2214 2112 2334 2401 2262 1923 1916 1867 1720 1473 1490 1714 1494 1240 1099 1308 1880 1936 1126 1162 1069 1074 1515 1567 802 494 572 367 328 267 204 143 71 61 125 149 298 282 267 61
2944 2900 2938 2885 2980 3164 3474 3460 3330 3631 3868 3903 3558 3275 2826 2569 2320 2289 2201 2128 1816 1329 1279 1352 1337 1352 2009 2551 2912 3086 2240 902 675 556 588 1307 2188 2544 3216 3080 3174 3001 2700 2476 2114 1532 1726 1696 1618 1526 1372 1468 1437 1531 1458 1460 1324 1377 1272 1252 1514 1716 1762 2018 1414 1594 819 557 561 400 421 310 285 157 144 108 59 5 31 83 119 152 122 39 0
2930 2795 2589 2812 3012 3343 2816 2790 3023 3321 3292 3266 3452 3666 3242 2940 2738 2720 2656 2633 2639 2401 2221 1829 2155 2660 2706 2667 2512 1608 853 688 542 521 508 538 1268 2542 2994 3061 2841 2539 2182 2195 2108 1519 1279 1058 1094 909 703 853 1083 1183 1094 1206 1160 937 775 878 879 740 888 1409 947 405 450 346 303 228 165 139 98 95 68 60 35 6 27 59 75 40 5 3 3
2697 2477 2359 2473 2509 2173 2222 2234 2453 2718 2558 2664 3415 3697 3423 2932 2920 2817 2808 2723 2537 2498 2565 2534 2761 2769 2473 1898 1411 1033 851 677 562 540 640 761 818 1515 2506 2380 2436 2354 2323 1949 1192 1469 1398 664 544 533 562 656 681 553 586 671 643 411 500 555 661 607 410 300 276 274 235 163 120 93 62 51 47 51 55 32 1 7 16 19 81 15 10 6 7
2247 2360 2347 2477 1841 1732 1809 1539 1997 1943 2020 2239 2724 2788 2915 2480 2509 2759 2792 2822 2728 2354 2333 2186 1839 1326 1333 954 924 821 759 719 637 789 842 872 893 1056 1927 2064 1528 1830 1527 1136 870 674 572 498 455 440 439 407 417 416 339 258 216 218 232 347 303 131 106 118 120 127 106 83 82 69 16 9 19 34 1 3 6 6 10 7 29 23 10 5 1
1811 1852 1693 1518 1801 1916 1797 1752 1822 1913 2112 2174 2161 2372 1998 2325 2394 2409 2742 2674 2486 2242 1577 1687 1483 1313 882 829 815 721 795 919 965 980 1000 1004 1000 1290 1310 1203 1059 806 714 625 589 530 481 401 324 285 231 236 238 234 244 196 159 192 245 232 100 94 89 91 104 92 83 64 45 7 4 4 3 5 5 4 4 2 3 3 9 21 12 9 0
1048 1246 1188 1512 1865 1770 1920 1894 1654 1662 1677 1867 2047 1958 1782 1906 1824 1814 1608 1594 1377 1214 871 835 816 874 921 988 1079 1322 1278 1242 1143 1031 985 965 914 892 846 844 801 729 629 469 373 289 263 269 208 114 170 228 269 254 125 82 104 86 18 53 44 0 0 0 0 1 2 0 0 0 1 0 1 0 1 2 4 4 3 2 0 0 7 12 14
836 840 881 898 950 1024 1153 1380 1225 1288 1393 1569 1599 1559 1494 1348 1418 1307 1272 1197 1046 945 888 945 1176 1368 1453 1410 1277 1114 974 858 787 741 662 614 566 511 543 547 505 375 308 267 207 206 228 111 77 34 42 57 42 5 18 13 1 1 0 0 0 0 0 0 0 0 0 0 0 0 0 0 0 0 0 0 1 2 1 2 1 2 4 4 5
667 631 664 618 623 772 693 727 706 1010 1039 1084 1262 1260 1392 1122 1272 1246 1220 1093 982 944 1211 1434 1409 1416 1276 1085 990 845 703 500 383 326 257 300 371 354 401 340 262 227 189 176 148 189 29 2 1 1 2 1 4 5 16 8 6 6 4 3 2 0 0 0 0 0 0 0 0 0 0 0 0 0 0 0 0 1 1 0 0 0 0 0 0
500 598 670 756 632 668 652 591 598 630 818 744 749 760 792 945 1117 1094 1056 1061 912 1083 1366 1427 1164 1092 1112 916 665 555 444 301 221 240 258 257 264 232 223 187 218 187 224 136 134 8 4 6 9 8 10 17 7 13 17 14 7 4 1 0 0 0 0 0 0 0 0 0 0 0 0 0 0 0 0 0 0 0 0 2 2 2 2 1 0
591 509 639 636 584 531 622 483 394 322 509 566 564 558 690 789 784 785 863 777 994 1286 1238 1150 1124 934 755 664 575 426 283 170 144 172 161 178 227 207 165 124 93 119 128 134 138 2 0 3 1 3 4 4 2 3 4 3 2 0 0 0 0 0 1 1 0 1 2 1 0 0 0 0 0 0 0 0 0 0 0 0 0 1 3 2 2
567 438 483 487 498 559 620 347 341 366 232 269 311 390 520 635 776 913 956 904 992 1001 679 849 799 672 553 411 390 349 288 183 106 32 4 26 35 6 12 42 56 8 5 0 3 2 2 3 4 5 0 0 2 0 1 8 7 3 3 3 3 4 7 4 2 2 1 0 0 0 0 0 0 0 0 0 0 0 0 0 0 0 0 0 0
627 584 502 640 689 746 638 461 510 704 719 723 807 866 812 942 1040 1144 1340 1086 633 915 854 761 711 582 484 490 388 238 170 159 79 0 0 0 5 14 15 8 5 4 3 4 2 2 1 0 0 0 0 0 0 0 0 0 1 4 3 5 1 7 3 2 0 0 0 0 0 0 0 0 0 0 0 0 0 0 0 0 0 0 0 0 0
707 683 404 520 629 608 650 641 720 777 768 598 1176 1002 980 899 927 659 497 614 566 485 645 517 395 161 173 143 63 56 80 0 0 0 0 0 0 0 6 6 5 3 2 2 0 0 0 0 0 0 0 0 0 0 0 0 0 0 0 0 0 0 0 0 0 0 0 0 0 0 0 0 0 0 0 0 0 0 0 0 0 0 0 0 0
695 696 679 588 513 468 422 425 683 674 639 579 981 1275 1146 732 568 379 419 604 441 233 246 106 116 58 34 127 0 0 0 0 0 0 0 0 0 0 0 6 3 6 5 3 0 0 0 0 0 0 0 0 0 0 0 0 0 0 0 0 0 0 0 0 0 0 0 0 0 0 0 0 0 0 0 0 0 0 0 0 0 0 0 0 0
861 820 754 743 666 524 550 630 644 552 549 745 862 978 408 313 377 380 290 232 214 14 1 5 0 0 0 0 1 6 6 2 0 0 0 0 0 0 2 3 3 4 4 0 0 0 0 0 0 0 0 0 0 0 0 0 0 0 0 0 0 0 0 0 0 0 0 0 0 0 0 0 0 0 0 0 0 0 0 0 0 0 0 0 0
868 826 734 508 394 428 448 480 466 416 370 436 500 543 438 449 331 261 210 202 63 1 0 1 2 0 0 0 0 4 3 1 1 0 0 0 0 0 0 0 0 0 2 1 0 0 0 0 0 0 0 0 0 0 0 0 0 0 0 0 0 0 0 0 0 0 0 0 0 0 0 0 0 0 0 0 0 0 0 0 0 0 0 0 0
807 811 691 426 370 367 386 332 324 340 364 343 326 324 307 270 226 166 62 0 0 0 0 0 0 0 0 0 2 2 0 1 0 0 0 0 0 0 0 0 0 0 0 0 0 0 0 0 0 0 0 0 0 0 0 0 0 0 0 0 0 0 0 0 0 0 0 0 0 0 0 0 0 0 0 0 0 0 0 0 0 0 0 0 0
672 619 561 406 281 234 216 212 205 221 228 233 197 152 116 96 90 85 85 19 0 0 0 0 0 0 0 0 4 8 9 8 18 14 2 0 0 0 0 0 0 0 0 0 0 0 0 0 0 0 0 0 0 0 0 0 0 0 0 0 0 0 0 0 0 0 0 0 0 0 0 0 0 0 0 0 0 0 0 0 0 0 0 0 0
497 345 233 230 240 218 188 168 164 152 128 111 95 86 81 0 85 48 0 0 0 0 0 4 1 0 0 0 3 10 9 20 19 20 5 0 0 0 0 0 0 0 0 0 0 0 0 0 0 0 0 0 0 0 0 0 0 0 0 0 0 0 0 0 0 0 0 0 0 0 0 0 0 0 0 0 0 0 0 0 0 0 0 0 0
141 121 155 151 139 119 108 104 103 48 4 4 4 0 0 0 0 0 0 0 0 0 4 0 3 0 0 0 4 10 16 16 8 0 1 0 157 18 17 3 0 0 0 0 0 0 0 0 0 0 0 0 0 0 0 0 0 0 0 0 0 0 0 0 0 0 0 0 0 0 0 0 0 0 0 0 0 0 0 0 0 0 0 0 0
36 27 31 0 0 0 0 0 0 0 0 0 0 0 0 0 0 0 0 0 0 0 0 0 0 2 6 34 2 14 9 0 0 0 0 0 0 0 0 0 0 0 0 0 0 0 0 0 0 1 2 0 0 0 0 0 0 0 0 0 0 0 0 0 0 0 0 0 0 0 0 0 0 0 0 0 0 0 0 0 0 0 0 0 0
74 26 14 11 3 0 0 0 0 0 0 0 0 0 0 0 0 0 0 0 0 0 0 0 0 0 4 0 0 0 0 0 0 0 0 0 0 0 0 0 0 0 0 1 0 1 3 10 8 10 7 8 6 2 0 0 0 0 0 0 0 0 0 0 0 0 0 0 0 0 0 0 0 0 0 0 0 0 0 0 0 0 0 0 0
219 143 93 55 42 30 9 0 0 0 0 0 0 0 0 0 0 0 0 0 0 0 0 0 0 0 0 0 0 0 0 0 0 0 0 0 0 0 0 0 0 0 0 0 16 8 12 10 9 9 8 4 3 3 0 0 0 0 0 0 0 0 0 0 0 0 0 0 0 0 0 0 0 0 0 0 0 0 0 0 0 0 0 0 0
377 292 315 186 67 37 33 51 12 0 0 0 0 0 0 0 0 0 0 0 0 0 0 0 0 0 0 0 0 0 0 0 0 0 0 0 0 0 0 0 0 0 0 4 15 8 9 7 4 4 4 4 4 2 2 1 1 1 1 0 0 0 0 0 0 0 0 0 0 0 0 0 0 0 0 0 0 0 0 0 0 0 0 0 0
196 332 373 327 134 20 4 27 39 16 0 0 0 0 0 0 0 0 0 0 0 0 0 0 0 0 0 0 0 0 0 0 0 0 0 0 0 0 0 0 0 0 96 10 4 9 6 6 6 6 7 6 4 6 6 7 7 12 9 0 1 1 2 0 0 0 0 0 0 0 0 0 0 0 0 0 0 0 0 0 0 0 0 0 0
314 303 289 293 141 16 0 0 0 4 0 0 0 0 0 0 0 0 0 0 0 0 0 0 0 0 0 0 0 0 0 0 0 0 0 0 0 0 0 0 0 1 8 15 7 8 8 9 11 4 9 7 10 7 9 11 9 6 0 0 0 0 0 0 0 0 0 0 0 0 0 0 0 0 0 0 0 0 0 0 0 0 1 3 1
17 152 261 110 2 0 0 0 0 0 0 0 0 0 0 0 0 0 0 0 0 0 0 0 0 0 0 0 0 0 0 0 0 0 0 0 0 0 8 8 19 14 15 12 12 8 14 14 15 13 12 9 9 8 10 10 7 0 0 0 0 0 0 0 0 0 0 0 0 0 0 0 0 0 0 0 0 0 0 0 0 0 2 3 3
0 0 0 0 0 0 0 0 0 0 0 0 0 0 0 0 0 0 0 0 0 0 0 0 0 0 0 0 0 0 0 0 0 0 0 0 0 0 40 20 16 14 14 13 15 17 14 16 14 15 12 10 14 11 12 9 4 1 1 0 0 0 0 0 0 0 0 0 0 0 0 0 0 0 0 0 0 0 0 0 4 4 5 6 4
0 0 0 0 0 0 0 0 0 0 0 0 0 0 0 0 0 0 0 0 0 0 1 1 0 2 1 0 0 0 0 0 0 0 0 0 0 23 16 13 20 13 12 11 12 13 12 14 18 14 11 10 13 4 1 0 0 0 0 0 0 0 0 0 0 0 0 0 0 0 0 0 0 0 0 0 0 0 0 3 3 5 8 0 0
0 0 0 0 0 0 0 0 0 0 0 0 0 0 0 0 0 0 3 6 6 5 6 6 7 10 9 1 0 0 0 0 0 1 0 2 12 12 24 20 20 18 16 15 12 16 14 11 9 10 11 9 7 3 0 0 0 0 0 0 0 0 0 0 0 0 0 0 0 0 0 0 0 0 0 1 2 3 2 5 3 3 3 0 3
6 1 0 0 0 0 0 0 0 3 6 17 11 6 0 0 0 0 4 9 10 12 14 14 21 30 15 9 7 0 5 10 21 31 36 33 32 30 29 22 23 19 20 19 16 15 15 15 13 13 17 10 6 0 0 0 0 0 0 0 0 0 0 0 0 0 0 0 0 0 0 0 0 0 2 4 5 4 9 4 9 0 7 0 0
21 1 3 23 1 1 5 2 2 17 15 21 18 32 14 15 8 3 5 4 11 15 22 24 22 40 27 24 3 3 24 27 30 36 31 31 33 23 28 26 18 18 17 19 15 16 15 12 14 12 13 4 1 0 0 0 0 0 0 0 0 0 0 0 0 0 0 0 0 0 0 0 0 1 4 3 7 4 10 4 0 6 0 0 0
20 18 1 19 4 0 2 12 2 5 9 8 9 10 10 14 24 18 16 11 7 11 15 15 22 46 18 14 3 0 132 30 27 33 31 32 28 33 24 25 18 22 15 17 15 16 14 12 6 0 2 0 0 0 0 0 0 0 0 0 0 0 0 0 0 0 0 0 0 0 2 0 0 5 1 7 7 8 7 11 9 9 0 0 9
22 59 1 0 1 0 0 2 2 8 4 3 3 3 10 4 11 23 28 42 15 13 18 26 42 34 22 8 3 10 38 29 33 25 25 26 31 29 27 19 18 15 15 18 17 19 15 6 3 1 0 0 0 0 0 0 0 0 0 0 0 0 0 0 0 0 0 0 0 0 0 2 4 7 5 7 7 4 10 2 8 0 0 1 0
2 8 14 11 8 3 9 0 6 6 6 1 0 0 1 6 10 17 26 50 46 21 36 37 26 20 22 15 12 9 33 24 23 22 26 27 28 19 12 16 12 14 17 19 17 8 4 1 0 0 0 0 0 0 0 0 0 0 0 0 0 0 0 0 0 0 0 0 0 0 0 2 5 5 6 1 3 7 5 3 1 6 1 7 4
0 0 0 14 8 30 24 13 0 1 0 0 1 5 2 0 8 14 11 29 38 40 25 24 18 19 27 26 22 12 21 28 22 25 18 18 21 14 9 13 13 18 15 14 8 1 0 0 0 0 0 0 0 0 0 0 0 0 0 0 0 0 0 0 0 0 0 0 0 0 0 0 4 1 5 9 1 0 11 0 1 2 4 2 2
0 0 0 0 0 0 9 16 2 3 9 13 7 2 0 2 8 4 10 11 17 17 22 26 27 26 16 16 17 24 16 25 20 17 16 14 13 12 10 15 14 10 8 5 0 0 0 0 0 0 0 0 0 0 0 0 0 0 0 0 0 0 0 0 0 0 0 0 1 1 0 5 7 8 4 9 6 0 7 8 2 1 0 4 2
0 0 0 0 0 0 0 0 1 16 20 8 0 0 6 6 4 3 4 10 8 19 18 23 26 28 23 22 13 7 16 13 21 19 15 12 7 3 2 5 3 2 0 0 0 0 0 0 0 0 0 0 0 0 0 0 0 0 0 0 0 0 0 0 0 0 0 0 3 4 5 5 6 6 1 6 0 0 10 0 11 1 2 3 10
0 0 0 0 0 0 0 0 0 0 0 0 0 0 0 0 4 3 14 15 15 14 17 18 18 18 18 19 16 26 26 17 9 12 13 9 1 0 0 0 0 0 0 0 0 0 0 0 0 0 0 0 0 0 0 0 0 0 0 0 0 0 0 0 0 1 0 2 1 5 4 4 9 6 6 9 9 7 5 1 1 12 0 9 4
0 0 0 0 0 0 0 0 0 0 0 0 0 0 0 0 2 6 10 12 12 14 12 12 13 9 9 13 20 16 9 11 7 1 1 0 0 0 0 0 0 0 0 0 0 0 0 0 0 0 0 0 0 0 0 0 0 0 0 0 0 0 0 0 0 0 0 0 5 8 6 7 11 0 0 1 7 6 0 1 0 2 0 6 0
0 0 0 0 0 0 0 0 0 0 0 0 0 0 0 0 0 0 5 8 12 13 12 5 8 12 17 13 9 9 5 0 0 0 0 0 0 0 0 0 0 0 0 0 0 0 0 0 0 0 0 0 0 0 0 0 0 0 0 0 0 0 0 0 0 0 0 0 0 3 8 11 13 9 2 2 0 0 1 1 1 0 0 0 1
0 0 0 0 0 0 0 0 0 0 0 0 0 0 0 0 0 0 0 5 13 10 11 14 16 14 8 9 2 1 0 0 0 0 0 0 0 0 0 0 0 0 0 0 0 0 0 0 2 2 1 0 0 0 0 0 0 0 0 0 0 0 0 0 0 0 0 0 0 1 7 6 9 8 0 0 2 0 0 3 0 6 0 0 3
Wind_Speed
7 7 7 6 4 3 2 2 0 1 2 3 3 4 4 4 4 4 4 3 3 2 2 2 3 3 3 3 3 4 5 5 6 7 7 6 6 6 7 8 7 4 3 4 8 12 10 5 4 6 8 7 8 9 9 8 7 7 7 6 5 6 7 8 8 9 10 9 10 11 13 14 13 15 12 14 13 16 14 12 14 13 14 16 24
10 11 9 8 5 5 4 4 3 3 2 3 3 4 4 5 4 4 3 4 3 3 3 3 4 4 4 4 4 4 5 5 5 5 6 7 6 8 8 9 10 11 10 11 12 13 10 8 9 8 8 9 8 9 10 9 9 9 10 11 8 9 10 9 11 12 12 14 17 14 13 17 16 17 17 15 17 16 16 16 15 15 15 19 16
14 13 11 9 7 6 6 6 6 4 2 3 3 4 5 5 6 4 5 5 7 6 6 5 6 7 7 7 8 7 8 8 7 5 8 8 8 8 18 16 12 9 10 14 11 7 10 11 10 9 10 10 10 9 11 12 11 11 13 13 15 13 11 13 14 13 14 16 17 16 16 20 18 18 17 18 18 18 18 18 19 18 20 19 19
16 16 13 11 10 9 9 8 7 7 5 6 5 6 7 8 7 6 7 8 8 10 8 8 9 9 8 8 8 9 9 8 9 8 6 9 9 12 15 12 11 11 10 13 15 12 11 11 10 10 10 10 11 11 13 13 12 12 13 17 20 14 15 15 18 18 18 17 19 20 21 20 20 20 21 20 20 21 20 21 20 20 21 21 21
19 18 16 14 13 13 11 11 10 9 8 9 7 8 8 8 9 8 10 9 9 10 12 11 11 10 9 8 8 9 9 10 10 9 4 11 13 12 13 12 12 13 13 13 15 14 13 12 12 12 11 10 11 13 13 13 16 16 15 17 19 21 21 18 19 20 20 19 21 23 24 24 24 25 22 21 20 19 22 22 22 22 24 23 22
19 20 19 17 17 16 15 14 14 13 12 11 10 10 10 10 10 12 12 11 12 12 13 13 13 13 12 11 11 11 12 13 12 10 10 14 15 15 14 13 12 12 13 16 15 13 13 15 16 14 13 13 14 14 14 15 19 19 16 15 16 17 21 21 22 25 23 20 23 22 24 27 26 26 26 25 24 23 21 24 24 26 26 26 26
21 20 20 21 21 20 19 18 18 16 15 14 14 14 13 12 12 13 15 14 13 14 15 16 15 15 15 15 15 17 18 18 19 18 17 18 17 16 15 16 15 13 13 17 16 15 15 17 17 16 15 15 15 17 18 17 19 20 19 18 16 18 21 25 27 27 25 24 25 26 25 28 28 26 30 29 27 28 26 27 27 30 30 31 31
22 21 22 23 24 24 23 22 20 19 19 18 18 18 17 15 16 17 16 16 16 16 16 17 18 18 18 19 21 22 23 23 24 24 23 22 21 20 20 19 19 18 19 19 18 18 17 18 17 16 16 16 16 17 18 20 22 23 25 25 25 27 24 28 28 28 27 26 27 27 29 28 27 28 28 30 31 32 31 30 29 30 32 38 nan
23 22 23 24 25 25 25 25 25 24 22 23 22 22 21 21 21 20 19 19 19 18 18 18 19 21 22 25 26 26 27 29 30 27 26 24 23 22 22 23 22 24 21 20 19 17 18 20 19 18 17 16 14 17 27 33 31 29 25 28 27 31 32 32 30 30 30 29 29 31 31 29 32 30 30 30 32 nan nan 32 31 31 34 39 nan
25 25 26 27 27 28 29 30 29 27 27 27 26 25 25 24 24 23 22 22 20 20 21 22 22 21 23 25 27 29 32 32 32 30 28 25 23 23 23 23 23 24 22 19 18 20 21 22 26 33 33 36 42 40 35 32 34 31 31 33 35 36 36 36 36 36 35 35 34 34 35 35 35 33 33 34 nan nan nan nan 34 36 40 nan nan
27 27 28 29 29 29 29 28 29 29 29 29 28 27 26 25 24 24 23 23 22 22 23 22 24 26 27 28 28 32 34 34 33 31 29 27 24 24 24 25 27 26 24 22 24 24 24 25 29 32 31 34 37 40 39 36 40 47 49 50 46 40 37 39 42 45 44 41 39 40 38 37 nan nan nan nan nan nan nan nan nan nan nan nan nan
32 32 31 31 32 32 30 28 27 28 29 29 29 28 26 25 24 24 24 24 25 26 25 26 28 29 30 31 34 35 37 37 32 34 32 30 27 26 28 29 28 26 26 27 25 25 29 32 32 30 31 34 38 35 43 50 52 52 51 51 52 51 48 44 46 46 46 45 44 nan nan nan nan nan nan nan nan nan nan nan nan nan nan nan nan
34 34 33 35 32 31 32 28 28 28 28 29 29 28 27 26 26 26 26 28 31 30 31 32 31 31 33 35 37 37 38 39 35 36 34 31 29 26 32 31 33 32 33 33 33 31 31 32 33 33 33 40 42 40 39 45 50 53 50 47 50 49 44 46 48 47 45 nan nan nan nan nan nan nan nan nan nan nan nan nan nan nan nan nan nan
35 35 34 33 33 33 31 30 30 31 31 31 31 31 31 32 31 32 33 35 35 35 36 34 35 35 36 36 36 38 39 40 37 37 35 34 32 29 39 38 38 38 38 37 36 35 35 36 36 37 38 41 44 44 44 48 49 48 48 46 nan nan nan nan 47 nan nan nan nan nan nan nan nan nan nan nan nan nan nan nan nan nan nan nan nan
35 37 39 39 37 35 35 35 34 35 37 36 34 32 33 36 35 38 40 39 41 41 39 39 41 40 39 38 37 37 39 39 35 36 37 36 37 42 41 41 41 41 41 42 41 39 39 40 42 43 42 44 46 46 44 nan 44 nan nan nan nan nan nan nan nan nan nan nan nan nan nan nan nan nan nan nan nan nan nan nan nan nan nan nan nan
28 32 35 38 40 39 38 37 38 39 39 38 36 35 35 40 42 44 44 45 45 46 45 43 43 44 44 42 40 39 39 39 35 36 38 40 46 44 43 43 42 42 43 44 43 41 41 44 nan nan nan nan nan nan nan nan nan nan nan nan nan nan nan nan nan nan nan nan nan nan nan nan nan nan nan nan nan nan nan nan nan nan nan nan nan
27 29 32 34 37 39 40 41 44 43 40 39 38 40 46 51 46 45 47 46 46 47 44 42 42 45 44 43 42 42 41 40 38 41 42 43 44 43 43 42 42 45 45 46 45 46 nan nan nan nan nan nan nan nan nan nan nan nan nan nan nan nan nan nan nan nan nan nan nan nan nan nan nan nan nan nan nan nan nan nan nan nan nan nan nan
26 26 28 29 33 40 47 51 47 44 42 41 44 49 52 51 49 46 48 49 50 47 43 41 42 43 43 44 43 43 42 42 43 43 41 40 42 42 41 41 44 45 47 49 48 nan nan nan nan nan nan nan nan nan nan nan nan nan nan nan nan nan nan nan nan nan nan nan nan nan nan nan nan nan nan nan nan nan nan nan nan nan nan nan nan
31 28 30 31 33 35 41 49 52 49 47 47 47 48 49 47 46 47 46 45 43 39 37 39 43 44 44 44 46 43 43 43 43 42 41 41 41 41 41 45 nan 49 48 48 47 nan nan nan nan nan nan nan nan nan nan nan nan nan nan nan nan nan nan nan nan nan nan nan nan nan nan nan nan nan nan nan nan nan nan nan nan nan nan nan nan
28 28 31 32 32 33 36 43 46 47 45 45 44 46 47 45 43 44 43 41 39 38 37 39 42 40 39 41 40 39 39 39 40 nan nan nan nan nan nan nan nan nan nan nan nan nan nan nan nan nan nan nan nan nan nan nan nan nan nan nan nan nan nan nan nan nan nan nan nan nan nan nan nan nan nan nan nan nan nan nan nan nan nan nan nan
25 26 25 25 28 34 35 33 34 34 34 32 30 33 33 32 29 29 31 32 35 36 36 36 35 32 32 34 35 34 33 33 nan nan nan nan nan nan nan nan nan nan nan nan nan nan nan nan nan nan nan nan nan nan nan nan nan nan nan nan nan nan nan nan nan nan nan nan nan nan nan nan nan nan nan nan nan nan nan nan nan nan nan nan nan
17 17 16 15 18 22 23 21 22 24 23 20 17 17 17 16 13 12 15 18 20 22 22 21 21 21 21 22 nan nan nan nan nan nan nan nan nan nan nan nan nan nan nan nan nan nan nan nan nan nan nan nan nan nan nan nan nan nan nan nan nan nan nan nan nan nan nan nan nan nan nan nan nan nan nan nan nan nan nan nan nan nan nan nan nan
20 18 17 16 16 15 14 15 17 18 19 17 14 9 9 11 10 9 11 12 10 10 11 12 13 nan nan 21 nan nan nan nan nan nan nan nan nan nan nan nan nan nan nan nan nan nan nan nan nan nan nan nan nan nan nan nan nan nan nan nan nan nan nan nan nan nan nan nan nan nan nan nan nan nan nan nan nan nan nan nan nan nan nan nan nan
21 21 21 22 22 19 17 18 18 18 19 19 16 10 8 11 11 9 11 12 9 nan nan nan nan nan nan nan nan nan nan nan nan nan nan nan nan nan nan nan nan nan nan nan nan nan nan nan nan nan nan nan nan nan nan nan nan nan nan nan nan nan nan nan nan nan nan nan nan nan nan nan nan nan nan nan nan nan nan nan nan nan nan nan nan
19 20 20 20 19 19 20 20 20 19 19 20 20 18 17 17 15 15 17 16 nan nan nan nan nan nan nan nan nan nan nan nan nan nan nan nan nan nan nan nan nan nan nan nan nan nan nan nan nan nan nan nan nan nan nan nan nan nan nan nan nan nan nan nan nan nan nan nan nan nan nan nan nan nan nan nan nan nan nan nan nan nan nan nan nan
14 15 16 17 17 17 20 21 21 20 20 20 22 22 23 21 19 18 nan nan nan nan nan nan nan nan nan nan nan nan nan nan nan nan nan nan nan nan nan nan nan nan nan nan nan nan nan nan nan nan nan nan nan nan nan nan nan nan nan nan nan nan nan nan nan nan nan nan nan nan nan nan nan nan nan nan nan nan nan nan nan nan nan nan nan
16 14 13 14 16 16 18 18 19 19 19 19 20 20 20 nan nan nan nan nan nan nan nan nan nan nan nan nan nan nan nan nan nan nan nan nan nan nan nan nan nan nan nan nan nan nan nan nan nan nan nan nan nan nan nan nan nan nan nan nan nan nan nan nan nan nan nan nan nan nan nan nan nan nan nan nan nan nan nan nan nan nan nan nan nan
18 16 16 15 15 17 18 19 18 18 17 17 nan nan nan nan nan nan nan nan nan nan nan nan nan nan nan nan nan nan nan nan nan nan nan nan nan nan nan nan nan nan nan nan nan nan nan nan nan nan nan nan nan nan nan nan nan nan nan nan nan nan nan nan nan nan nan nan nan nan nan nan nan nan nan nan nan nan nan nan nan nan nan nan nan
21 21 19 19 19 18 18 19 19 nan nan nan nan nan nan nan nan nan nan nan nan nan nan nan nan nan nan nan nan nan nan nan nan nan nan nan 35 nan nan nan nan nan nan nan nan nan nan nan nan nan nan nan nan nan nan nan nan nan nan nan nan nan nan nan nan nan nan nan nan nan nan nan nan nan nan nan nan nan nan nan nan nan nan nan nan
nan nan nan nan nan nan nan nan nan nan nan nan nan nan nan nan nan nan nan nan nan nan nan nan nan nan nan nan nan nan nan nan nan nan nan nan nan nan nan nan nan nan nan nan nan nan nan nan nan nan nan nan nan nan nan nan nan nan nan nan nan nan nan nan nan nan nan nan nan nan nan nan nan nan nan nan nan nan nan nan nan nan nan nan nan
nan nan nan nan nan nan nan nan nan nan nan nan nan nan nan nan nan nan nan nan nan nan nan nan nan nan nan nan nan nan nan nan nan nan nan nan nan nan nan nan nan nan nan nan nan nan nan nan nan nan nan nan nan nan nan nan nan nan nan nan nan nan nan nan nan nan nan nan nan nan nan nan nan nan nan nan nan nan nan nan nan nan nan nan nan
27 27 nan nan nan nan nan nan nan nan nan nan nan nan nan nan nan nan nan nan nan nan nan nan nan nan nan nan nan nan nan nan nan nan nan nan nan nan nan nan nan nan nan nan nan nan nan nan nan nan nan nan nan nan nan nan nan nan nan nan nan nan nan nan nan nan nan nan nan nan nan nan nan nan nan nan nan nan nan nan nan nan nan nan nan
26 27 27 24 nan nan nan nan nan nan nan nan nan nan nan nan nan nan nan nan nan nan nan nan nan nan nan nan nan nan nan nan nan nan nan nan nan nan nan nan nan nan nan nan nan nan nan nan nan nan nan nan nan nan nan nan nan nan nan nan nan nan nan nan nan nan nan nan nan nan nan nan nan nan nan nan nan nan nan nan nan nan nan nan nan
24 24 24 23 23 nan nan nan nan nan nan nan nan nan nan nan nan nan nan nan nan nan nan nan nan nan nan nan nan nan nan nan nan nan nan nan nan nan nan nan nan nan nan nan nan nan nan nan nan nan nan nan nan nan nan nan nan nan nan nan nan nan nan nan nan nan nan nan nan nan nan nan nan nan nan nan nan nan nan nan nan nan nan nan nan
22 25 25 22 22 nan nan nan nan nan nan nan nan nan nan nan nan nan nan nan nan nan nan nan nan nan nan nan nan nan nan nan nan nan nan nan nan nan nan nan nan nan nan nan nan nan nan nan nan nan nan nan nan nan nan nan nan nan nan nan nan nan nan nan nan nan nan nan nan nan nan nan nan nan nan nan nan nan nan nan nan nan nan nan nan
nan 21 21 21 nan nan nan nan nan nan nan nan nan nan nan nan nan nan nan nan nan nan nan nan nan nan nan nan nan nan nan nan nan nan nan nan nan nan nan nan nan nan nan nan nan nan nan nan nan nan nan nan nan nan nan nan nan nan nan nan nan nan nan nan nan nan nan nan nan nan nan nan nan nan nan nan nan nan nan nan nan nan nan nan nan
nan nan nan nan nan nan nan nan nan nan nan nan nan nan nan nan nan nan nan nan nan nan nan nan nan nan nan nan nan nan nan nan nan nan nan nan nan nan nan nan nan nan nan nan nan nan nan nan nan nan nan nan nan nan nan nan nan nan nan nan nan nan nan nan nan nan nan nan nan nan nan nan nan nan nan nan nan nan nan nan nan nan nan nan nan
nan nan nan nan nan nan nan nan nan nan nan nan nan nan nan nan nan nan nan nan nan nan nan nan nan nan nan nan nan nan nan nan nan nan nan nan nan nan nan nan nan nan nan nan nan nan nan nan nan nan nan nan nan nan nan nan nan nan nan nan nan nan nan nan nan nan nan nan nan nan nan nan nan nan nan nan nan nan nan nan nan nan nan nan nan
nan nan nan nan nan nan nan nan nan nan nan nan nan nan nan nan nan nan nan nan nan nan nan nan nan nan nan nan nan nan nan nan nan nan nan nan nan nan nan nan nan nan nan nan nan nan nan nan nan nan nan nan nan nan nan nan nan nan nan nan nan nan nan nan nan nan nan nan nan nan nan nan nan nan nan nan nan nan nan nan nan nan nan nan nan
nan nan nan nan nan nan nan nan nan nan nan nan nan nan nan nan nan nan nan nan nan nan nan nan nan nan nan nan nan nan nan nan nan nan nan nan nan nan nan nan nan nan nan nan nan nan nan nan nan nan nan nan nan nan nan nan nan nan nan nan nan nan nan nan nan nan nan nan nan nan nan nan nan nan nan nan nan nan nan nan nan nan nan nan nan
nan nan nan nan nan nan nan nan nan nan nan nan nan nan nan nan nan nan nan nan nan nan nan nan nan nan nan nan nan nan nan nan nan nan nan nan nan nan nan nan nan nan nan nan nan nan nan nan nan nan nan nan nan nan nan nan nan nan nan nan nan nan nan nan nan nan nan nan nan nan nan nan nan nan nan nan nan nan nan nan nan nan nan nan nan
nan nan nan nan nan nan nan nan nan nan nan nan nan nan nan nan nan nan nan nan nan nan nan nan nan nan nan nan nan nan 12 nan nan nan nan nan nan nan nan nan nan nan nan nan nan nan nan nan nan nan nan nan nan nan nan nan nan nan nan nan nan nan nan nan nan nan nan nan nan nan nan nan nan nan nan nan nan nan nan nan nan nan nan nan nan
nan nan nan nan nan nan nan nan nan nan nan nan nan nan nan nan nan nan nan nan nan nan nan nan nan nan nan nan nan nan nan nan nan nan nan nan nan nan nan nan nan nan nan nan nan nan nan nan nan nan nan nan nan nan nan nan nan nan nan nan nan nan nan nan nan nan nan nan nan nan nan nan nan nan nan nan nan nan nan nan nan nan nan nan nan
nan nan nan nan nan nan nan nan nan nan nan nan nan nan nan nan nan nan nan nan nan nan nan nan nan nan nan nan nan nan nan nan nan nan nan nan nan nan nan nan nan nan nan nan nan nan nan nan nan nan nan nan nan nan nan nan nan nan nan nan nan nan nan nan nan nan nan nan nan nan nan nan nan nan nan nan nan nan nan nan nan nan nan nan nan
nan nan nan nan nan nan nan nan nan nan nan nan nan nan nan nan nan nan nan nan nan nan nan nan nan nan nan nan nan nan nan nan nan nan nan nan nan nan nan nan nan nan nan nan nan nan nan nan nan nan nan nan nan nan nan nan nan nan nan nan nan nan nan nan nan nan nan nan nan nan nan nan nan nan nan nan nan nan nan nan nan nan nan nan nan
nan nan nan nan nan nan nan nan nan nan nan nan nan nan nan nan nan nan nan nan nan nan nan nan nan nan nan nan nan nan nan nan nan nan nan nan nan nan nan nan nan nan nan nan nan nan nan nan nan nan nan nan nan nan nan nan nan nan nan nan nan nan nan nan nan nan nan nan nan nan nan nan nan nan nan nan nan nan nan nan nan nan nan nan nan
nan nan nan nan nan nan nan nan nan nan nan nan nan nan nan nan nan nan nan nan nan nan nan nan nan nan nan nan nan nan nan nan nan nan nan nan nan nan nan nan nan nan nan nan nan nan nan nan nan nan nan nan nan nan nan nan nan nan nan nan nan nan nan nan nan nan nan nan nan nan nan nan nan nan nan nan nan nan nan nan nan nan nan nan nan
nan nan nan nan nan nan nan nan nan nan nan nan nan nan nan nan nan nan nan nan nan nan nan nan nan nan nan nan nan nan nan nan nan nan nan nan nan nan nan nan nan nan nan nan nan nan nan nan nan nan nan nan nan nan nan nan nan nan nan nan nan nan nan nan nan nan nan nan nan nan nan nan nan nan nan nan nan nan nan nan nan nan nan nan nan
nan nan nan nan nan nan nan nan nan nan nan nan nan nan nan nan nan nan nan nan nan nan nan nan nan nan nan nan nan nan nan nan nan nan nan nan nan nan nan nan nan nan nan nan nan nan nan nan nan nan nan nan nan nan nan nan nan nan nan nan nan nan nan nan nan nan nan nan nan nan nan nan nan nan nan nan nan nan nan nan nan nan nan nan nan
nan nan nan nan nan nan nan nan nan nan nan nan nan nan nan nan nan nan nan nan nan nan nan nan nan nan nan nan nan nan nan nan nan nan nan nan nan nan nan nan nan nan nan nan nan nan nan nan nan nan nan nan nan nan nan nan nan nan nan nan nan nan nan nan nan nan nan nan nan nan nan nan nan nan nan nan nan nan nan nan nan nan nan nan nan
nan nan nan nan nan nan nan nan nan nan nan nan nan nan nan nan nan nan nan nan nan nan nan nan nan nan nan nan nan nan nan nan nan nan nan nan nan nan nan nan nan nan nan nan nan nan nan nan nan nan nan nan nan nan nan nan nan nan nan nan nan nan nan nan nan nan nan nan nan nan nan nan nan nan nan nan nan nan nan nan nan nan nan nan nan
Wind_Direction
250 241 237 243 249 256 262 263 321 203 184 222 189 194 204 204 221 210 225 205 214 244 255 238 226 221 199 211 228 242 242 231 228 231 248 250 244 233 223 221 218 202 186 207 244 259 255 244 240 242 246 247 249 249 250 247 254 263 262 260 256 252 259 262 260 260 261 253 246 245 252 256 260 260 263 266 265 268 267 274 274 278 282 287 293
243 243 235 237 248 254 257 257 243 229 219 240 233 219 220 233 228 242 252 260 251 252 262 264 284 277 257 260 243 234 247 259 268 267 268 267 256 256 263 253 243 230 204 227 217 239 249 235 237 242 254 257 251 250 257 261 269 271 272 267 271 267 260 259 261 261 260 264 260 256 250 260 262 262 260 261 261 266 267 267 272 275 275 280 278
245 245 242 240 245 244 246 257 262 266 256 228 242 233 242 238 246 251 263 267 279 275 277 279 264 263 260 250 245 235 220 209 211 245 269 263 258 246 251 261 279 284 269 261 258 257 258 267 263 255 257 258 262 268 263 255 251 257 260 260 251 249 263 268 266 264 262 264 269 278 274 259 258 259 261 262 265 268 269 268 268 269 273 273 277
242 247 246 247 251 249 247 242 256 260 257 242 231 228 226 237 242 246 254 258 268 278 278 270 272 270 260 257 254 254 255 246 236 206 229 267 256 255 264 275 276 280 283 287 296 300 291 281 278 270 267 270 275 276 275 273 269 267 275 281 283 284 264 263 275 273 266 266 267 266 267 267 270 269 266 267 263 266 271 271 271 271 270 270 274
236 244 245 247 250 248 248 250 246 246 243 241 245 242 235 237 242 243 248 252 260 268 276 275 272 272 268 267 267 269 273 273 265 255 237 255 259 260 269 278 280 280 275 278 283 292 295 288 281 277 273 273 278 281 280 279 275 270 277 285 289 288 288 283 275 275 270 266 267 266 266 269 268 265 261 265 271 269 271 270 270 269 269 270 271
247 249 248 246 245 248 248 246 247 247 239 238 242 244 249 251 249 252 252 252 255 261 266 269 272 275 271 263 257 259 260 269 279 281 261 259 265 266 262 261 264 269 273 278 284 284 278 279 277 274 272 275 274 272 274 278 273 275 283 285 279 280 277 276 281 279 273 273 274 276 270 268 269 273 273 267 267 269 270 268 270 271 272 270 269
252 254 254 252 249 248 246 244 244 246 246 243 246 249 248 252 255 254 257 257 259 262 266 268 264 264 266 264 261 257 254 251 252 254 254 257 261 264 266 266 268 268 277 282 281 279 271 268 267 270 275 274 275 277 281 285 282 282 281 278 285 283 282 272 266 270 279 275 274 272 275 275 272 269 268 269 272 273 270 271 273 275 276 272 272
254 254 255 255 255 256 254 251 248 248 249 249 248 250 251 249 251 253 253 259 259 261 261 264 267 266 265 264 261 258 257 256 255 253 253 255 258 261 265 265 266 266 265 271 267 267 267 265 265 270 275 278 276 279 285 288 288 279 272 271 267 264 270 270 273 272 269 268 269 267 265 264 267 268 269 270 272 274 274 274 274 276 277 278 nan
256 255 254 255 255 256 257 256 253 251 250 251 251 252 252 248 247 247 249 248 251 255 257 256 256 257 257 257 256 256 256 253 251 249 250 253 258 262 267 268 268 272 274 271 271 266 265 265 265 263 261 259 261 259 260 265 270 273 279 283 281 277 275 276 277 275 274 274 271 274 270 270 268 268 271 270 270 nan nan 274 276 276 275 277 nan
258 256 254 253 253 255 256 255 256 255 253 251 250 251 252 254 254 255 252 251 247 247 247 250 252 256 259 261 260 258 257 255 249 244 246 252 256 261 264 267 268 270 270 271 270 265 262 262 265 260 258 258 255 256 260 269 276 283 281 283 281 282 280 279 276 273 270 268 269 269 272 270 267 268 270 270 nan nan nan nan 273 273 273 nan nan
256 254 253 253 252 251 249 249 253 256 256 255 254 254 256 257 259 261 260 258 255 250 250 250 250 248 251 257 260 259 256 254 245 248 246 244 251 259 264 266 266 266 264 264 268 268 272 271 268 265 265 265 264 263 275 279 281 275 270 270 271 275 276 275 273 270 272 271 269 269 267 266 nan nan nan nan nan nan nan nan nan nan nan nan nan
255 252 253 254 254 254 252 251 254 256 256 256 258 260 262 265 266 265 264 264 260 256 253 253 252 252 253 253 254 254 256 252 249 250 249 247 249 252 259 259 259 261 263 267 265 268 271 273 273 273 271 272 276 277 275 271 271 270 269 270 269 264 261 265 272 273 272 273 271 nan nan nan nan nan nan nan nan nan nan nan nan nan nan nan nan
250 247 248 250 253 253 255 254 255 257 257 257 258 260 263 265 265 265 263 261 260 259 258 256 257 257 256 255 256 257 256 249 248 250 252 250 250 249 259 258 262 261 263 263 264 267 272 273 274 274 277 279 282 284 283 279 274 272 272 270 266 263 262 261 261 267 270 nan nan nan nan nan nan nan nan nan nan nan nan nan nan nan nan nan nan
245 242 242 245 248 251 253 255 256 258 259 258 257 258 260 259 258 258 258 261 260 259 259 260 259 258 258 260 260 258 257 246 243 247 251 251 250 250 262 263 264 265 265 266 268 270 272 274 274 276 281 282 283 283 283 282 282 280 276 271 nan nan nan nan 268 nan nan nan nan nan nan nan nan nan nan nan nan nan nan nan nan nan nan nan nan
247 240 239 237 239 241 247 252 253 253 255 256 255 256 260 260 259 258 257 261 260 258 259 261 260 260 262 261 261 260 257 248 246 247 250 253 255 257 261 264 265 266 267 268 270 273 274 273 271 272 273 276 280 282 283 nan 286 nan nan nan nan nan nan nan nan nan nan nan nan nan nan nan nan nan nan nan nan nan nan nan nan nan nan nan nan
254 249 247 244 243 240 240 244 249 252 254 256 257 258 260 262 261 260 262 263 264 263 263 265 265 264 262 261 260 259 258 250 247 250 254 259 261 262 262 262 264 267 270 270 271 272 272 272 nan nan nan nan nan nan nan nan nan nan nan nan nan nan nan nan nan nan nan nan nan nan nan nan nan nan nan nan nan nan nan nan nan nan nan nan nan
259 254 249 247 246 245 243 244 247 249 251 253 255 257 257 257 258 261 262 262 260 260 263 263 263 264 264 262 259 257 253 244 248 256 258 260 263 264 264 265 267 270 271 271 270 269 nan nan nan nan nan nan nan nan nan nan nan nan nan nan nan nan nan nan nan nan nan nan nan nan nan nan nan nan nan nan nan nan nan nan nan nan nan nan nan
256 252 251 252 254 251 248 245 247 249 251 255 256 254 254 258 260 260 263 263 261 259 257 253 253 257 262 261 259 258 254 249 253 258 261 261 263 264 265 267 269 269 267 265 267 nan nan nan nan nan nan nan nan nan nan nan nan nan nan nan nan nan nan nan nan nan nan nan nan nan nan nan nan nan nan nan nan nan nan nan nan nan nan nan nan
254 250 252 254 256 256 252 247 246 250 253 253 253 253 254 255 256 259 260 259 255 250 247 250 255 257 258 259 259 261 259 253 250 253 255 260 266 266 267 268 nan 269 269 268 268 nan nan nan nan nan nan nan nan nan nan nan nan nan nan nan nan nan nan nan nan nan nan nan nan nan nan nan nan nan nan nan nan nan nan nan nan nan nan nan nan
262 256 253 254 253 253 253 249 249 252 256 254 251 252 254 254 257 260 258 253 250 248 249 252 255 254 254 256 258 262 261 255 248 nan nan nan nan nan nan nan nan nan nan nan nan nan nan nan nan nan nan nan nan nan nan nan nan nan nan nan nan nan nan nan nan nan nan nan nan nan nan nan nan nan nan nan nan nan nan nan nan nan nan nan nan
255 253 254 255 253 248 244 245 244 245 247 246 247 248 245 251 259 267 263 255 253 254 253 250 250 248 250 255 257 257 257 253 nan nan nan nan nan nan nan nan nan nan nan nan nan nan nan nan nan nan nan nan nan nan nan nan nan nan nan nan nan nan nan nan nan nan nan nan nan nan nan nan nan nan nan nan nan nan nan nan nan nan nan nan nan
264 252 235 227 232 235 233 229 227 223 221 227 239 235 230 231 222 246 263 263 259 258 256 249 249 247 245 247 nan nan nan nan nan nan nan nan nan nan nan nan nan nan nan nan nan nan nan nan nan nan nan nan nan nan nan nan nan nan nan nan nan nan nan nan nan nan nan nan nan nan nan nan nan nan nan nan nan nan nan nan nan nan nan nan nan
277 265 248 241 240 234 226 231 233 228 225 231 244 233 220 223 221 224 252 252 241 256 259 252 247 nan nan 258 nan nan nan nan nan nan nan nan nan nan nan nan nan nan nan nan nan nan nan nan nan nan nan nan nan nan nan nan nan nan nan nan nan nan nan nan nan nan nan nan nan nan nan nan nan nan nan nan nan nan nan nan nan nan nan nan nan
271 266 259 256 259 258 253 250 247 246 245 248 252 241 221 241 244 243 255 260 255 nan nan nan nan nan nan nan nan nan nan nan nan nan nan nan nan nan nan nan nan nan nan nan nan nan nan nan nan nan nan nan nan nan nan nan nan nan nan nan nan nan nan nan nan nan nan nan nan nan nan nan nan nan nan nan nan nan nan nan nan nan nan nan nan
263 257 257 261 262 262 256 251 249 248 246 246 249 248 247 253 259 262 267 271 nan nan nan nan nan nan nan nan nan nan nan nan nan nan nan nan nan nan nan nan nan nan nan nan nan nan nan nan nan nan nan nan nan nan nan nan nan nan nan nan nan nan nan nan nan nan nan nan nan nan nan nan nan nan nan nan nan nan nan nan nan nan nan nan nan
264 260 264 268 268 266 264 263 261 258 257 250 249 252 258 264 269 275 nan nan nan nan nan nan nan nan nan nan nan nan nan nan nan nan nan nan nan nan nan nan nan nan nan nan nan nan nan nan nan nan nan nan nan nan nan nan nan nan nan nan nan nan nan nan nan nan nan nan nan nan nan nan nan nan nan nan nan nan nan nan nan nan nan nan nan
277 272 267 266 269 272 274 276 277 273 271 267 263 263 267 nan nan nan nan nan nan nan nan nan nan nan nan nan nan nan nan nan nan nan nan nan nan nan nan nan nan nan nan nan nan nan nan nan nan nan nan nan nan nan nan nan nan nan nan nan nan nan nan nan nan nan nan nan nan nan nan nan nan nan nan nan nan nan nan nan nan nan nan nan nan
279 275 269 262 259 261 264 268 272 269 260 259 nan nan nan nan nan nan nan nan nan nan nan nan nan nan nan nan nan nan nan nan nan nan nan nan nan nan nan nan nan nan nan nan nan nan nan nan nan nan nan nan nan nan nan nan nan nan nan nan nan nan nan nan nan nan nan nan nan nan nan nan nan nan nan nan nan nan nan nan nan nan nan nan nan
273 268 263 261 261 262 264 265 268 nan nan nan nan nan nan nan nan nan nan nan nan nan nan nan nan nan nan nan nan nan nan nan nan nan nan nan 293 nan nan nan nan nan nan nan nan nan nan nan nan nan nan nan nan nan nan nan nan nan nan nan nan nan nan nan nan nan nan nan nan nan nan nan nan nan nan nan nan nan nan nan nan nan nan nan nan
nan nan nan nan nan nan nan nan nan nan nan nan nan nan nan nan nan nan nan nan nan nan nan nan nan nan nan nan nan nan nan nan nan nan nan nan nan nan nan nan nan nan nan nan nan nan nan nan nan nan nan nan nan nan nan nan nan nan nan nan nan nan nan nan nan nan nan nan nan nan nan nan nan nan nan nan nan nan nan nan nan nan nan nan nan
nan nan nan nan nan nan nan nan nan nan nan nan nan nan nan nan nan nan nan nan nan nan nan nan nan nan nan nan nan nan nan nan nan nan nan nan nan nan nan nan nan nan nan nan nan nan nan nan nan nan nan nan nan nan nan nan nan nan nan nan nan nan nan nan nan nan nan nan nan nan nan nan nan nan nan nan nan nan nan nan nan nan nan nan nan
253 254 nan nan nan nan nan nan nan nan nan nan nan nan nan nan nan nan nan nan nan nan nan nan nan nan nan nan nan nan nan nan nan nan nan nan nan nan nan nan nan nan nan nan nan nan nan nan nan nan nan nan nan nan nan nan nan nan nan nan nan nan nan nan nan nan nan nan nan nan nan nan nan nan nan nan nan nan nan nan nan nan nan nan nan
253 255 256 256 nan nan nan nan nan nan nan nan nan nan nan nan nan nan nan nan nan nan nan nan nan nan nan nan nan nan nan nan nan nan nan nan nan nan nan nan nan nan nan nan nan nan nan nan nan nan nan nan nan nan nan nan nan nan nan nan nan nan nan nan nan nan nan nan nan nan nan nan nan nan nan nan nan nan nan nan nan nan nan nan nan
253 254 258 261 260 nan nan nan nan nan nan nan nan nan nan nan nan nan nan nan nan nan nan nan nan nan nan nan nan nan nan nan nan nan nan nan nan nan nan nan nan nan nan nan nan nan nan nan nan nan nan nan nan nan nan nan nan nan nan nan nan nan nan nan nan nan nan nan nan nan nan nan nan nan nan nan nan nan nan nan nan nan nan nan nan
255 256 263 263 263 nan nan nan nan nan nan nan nan nan nan nan nan nan nan nan nan nan nan nan nan nan nan nan nan nan nan nan nan nan nan nan nan nan nan nan nan nan nan nan nan nan nan nan nan nan nan nan nan nan nan nan nan nan nan nan nan nan nan nan nan nan nan nan nan nan nan nan nan nan nan nan nan nan nan nan nan nan nan nan nan
nan 266 267 269 nan nan nan nan nan nan nan nan nan nan nan nan nan nan nan nan nan nan nan nan nan nan nan nan nan nan nan nan nan nan nan nan nan nan nan nan nan nan nan nan nan nan nan nan nan nan nan nan nan nan nan nan nan nan nan nan nan nan nan nan nan nan nan nan nan nan nan nan nan nan nan nan nan nan nan nan nan nan nan nan nan
nan nan nan nan nan nan nan nan nan nan nan nan nan nan nan nan nan nan nan nan nan nan nan nan nan nan nan nan nan nan nan nan nan nan nan nan nan nan nan nan nan nan nan nan nan nan nan nan nan nan nan nan nan nan nan nan nan nan nan nan nan nan nan nan nan nan nan nan nan nan nan nan nan nan nan nan nan nan nan nan nan nan nan nan nan
nan nan nan nan nan nan nan nan nan nan nan nan nan nan nan nan nan nan nan nan nan nan nan nan nan nan nan nan nan nan nan nan nan nan nan nan nan nan nan nan nan nan nan nan nan nan nan nan nan nan nan nan nan nan nan nan nan nan nan nan nan nan nan nan nan nan nan nan nan nan nan nan nan nan nan nan nan nan nan nan nan nan nan nan nan
nan nan nan nan nan nan nan nan nan nan nan nan nan nan nan nan nan nan nan nan nan nan nan nan nan nan nan nan nan nan nan nan nan nan nan nan nan nan nan nan nan nan nan nan nan nan nan nan nan nan nan nan nan nan nan nan nan nan nan nan nan nan nan nan nan nan nan nan nan nan nan nan nan nan nan nan nan nan nan nan nan nan nan nan nan
nan nan nan nan nan nan nan nan nan nan nan nan nan nan nan nan nan nan nan nan nan nan nan nan nan nan nan nan nan nan nan nan nan nan nan nan nan nan nan nan nan nan nan nan nan nan nan nan nan nan nan nan nan nan nan nan nan nan nan nan nan nan nan nan nan nan nan nan nan nan nan nan nan nan nan nan nan nan nan nan nan nan nan nan nan
nan nan nan nan nan nan nan nan nan nan nan nan nan nan nan nan nan nan nan nan nan nan nan nan nan nan nan nan nan nan nan nan nan nan nan nan nan nan nan nan nan nan nan nan nan nan nan nan nan nan nan nan nan nan nan nan nan nan nan nan nan nan nan nan nan nan nan nan nan nan nan nan nan nan nan nan nan nan nan nan nan nan nan nan nan
nan nan nan nan nan nan nan nan nan nan nan nan nan nan nan nan nan nan nan nan nan nan nan nan nan nan nan nan nan nan 272 nan nan nan nan nan nan nan nan nan nan nan nan nan nan nan nan nan nan nan nan nan nan nan nan nan nan nan nan nan nan nan nan nan nan nan nan nan nan nan nan nan nan nan nan nan nan nan nan nan nan nan nan nan nan
nan nan nan nan nan nan nan nan nan nan nan nan nan nan nan nan nan nan nan nan nan nan nan nan nan nan nan nan nan nan nan nan nan nan nan nan nan nan nan nan nan nan nan nan nan nan nan nan nan nan nan nan nan nan nan nan nan nan nan nan nan nan nan nan nan nan nan nan nan nan nan nan nan nan nan nan nan nan nan nan nan nan nan nan nan
nan nan nan nan nan nan nan nan nan nan nan nan nan nan nan nan nan nan nan nan nan nan nan nan nan nan nan nan nan nan nan nan nan nan nan nan nan nan nan nan nan nan nan nan nan nan nan nan nan nan nan nan nan nan nan nan nan nan nan nan nan nan nan nan nan nan nan nan nan nan nan nan nan nan nan nan nan nan nan nan nan nan nan nan nan
nan nan nan nan nan nan nan nan nan nan nan nan nan nan nan nan nan nan nan nan nan nan nan nan nan nan nan nan nan nan nan nan nan nan nan nan nan nan nan nan nan nan nan nan nan nan nan nan nan nan nan nan nan nan nan nan nan nan nan nan nan nan nan nan nan nan nan nan nan nan nan nan nan nan nan nan nan nan nan nan nan nan nan nan nan
nan nan nan nan nan nan nan nan nan nan nan nan nan nan nan nan nan nan nan nan nan nan nan nan nan nan nan nan nan nan nan nan nan nan nan nan nan nan nan nan nan nan nan nan nan nan nan nan nan nan nan nan nan nan nan nan nan nan nan nan nan nan nan nan nan nan nan nan nan nan nan nan nan nan nan nan nan nan nan nan nan nan nan nan nan
nan nan nan nan nan nan nan nan nan nan nan nan nan nan nan nan nan nan nan nan nan nan nan nan nan nan nan nan nan nan nan nan nan nan nan nan nan nan nan nan nan nan nan nan nan nan nan nan nan nan nan nan nan nan nan nan nan nan nan nan nan nan nan nan nan nan nan nan nan nan nan nan nan nan nan nan nan nan nan nan nan nan nan nan nan
nan nan nan nan nan nan nan nan nan nan nan nan nan nan nan nan nan nan nan nan nan nan nan nan nan nan nan nan nan nan nan nan nan nan nan nan nan nan nan nan nan nan nan nan nan nan nan nan nan nan nan nan nan nan nan nan nan nan nan nan nan nan nan nan nan nan nan nan nan nan nan nan nan nan nan nan nan nan nan nan nan nan nan nan nan
nan nan nan nan nan nan nan nan nan nan nan nan nan nan nan nan nan nan nan nan nan nan nan nan nan nan nan nan nan nan nan nan nan nan nan nan nan nan nan nan nan nan nan nan nan nan nan nan nan nan nan nan nan nan nan nan nan nan nan nan nan nan nan nan nan nan nan nan nan nan nan nan nan nan nan nan nan nan nan nan nan nan nan nan nan
nan nan nan nan nan nan nan nan nan nan nan nan nan nan nan nan nan nan nan nan nan nan nan nan nan nan nan nan nan nan nan nan nan nan nan nan nan nan nan nan nan nan nan nan nan nan nan nan nan nan nan nan nan nan nan nan nan nan nan nan nan nan nan nan nan nan nan nan nan nan nan nan nan nan nan nan nan nan nan nan nan nan nan nan nan
nan nan nan nan nan nan nan nan nan nan nan nan nan nan nan nan nan nan nan nan nan nan nan nan nan nan nan nan nan nan nan nan nan nan nan nan nan nan nan nan nan nan nan nan nan nan nan nan nan nan nan nan nan nan nan nan nan nan nan nan nan nan nan nan nan nan nan nan nan nan nan nan nan nan nan nan nan nan nan nan nan nan nan nan nan